Weather History for Wright-Patt AFB, OH

Change the Weather History Date:

Monday, March 17, 2014

  Actual Average Record
Temperature  
Mean Temperature 30 °F -  
Max Temperature 41 °F 47 °F 73 °F (2012)
Min Temperature 19 °F 27 °F 19 °F (2014)
Degree Days  
Heating Degree Days 34    
Moisture  
Dew Point 15 °F    
Average Humidity 58    
Maximum Humidity 67    
Minimum Humidity 46    
Precipitation  
Precipitation 0.00 in - - ()
Sea Level Pressure  
Sea Level Pressure 29.96 in    
Wind  
Wind Speed 11 mph (NE)    
Max Wind Speed 15 mph    
Max Gust Speed 23 mph    
Visibility 10 miles    
Events      
Averages and records for this station are not official NWS values.
T = Trace of Precipitation, MM = Missing Value Source: NWS Daily Summary

Daily Weather History Graph

Daily Weather History Graph

Search for Another Location

Airport:

Trip Planner

Search our weather history database for the weather conditions in past years. The results will help you decide how hot, cold, wet, or windy it might be!

Date:

Astronomy

Mar. 17, 2014 Rise Set
Actual Time 7:44 AM EDT 7:45 PM EDT
Civil Twilight 7:17 AM EDT 8:12 PM EDT
Nautical Twilight 6:46 AM EDT 8:43 PM EDT
Astronomical Twilight 6:14 AM EDT 9:15 PM EDT
Moon 9:00 PM EDT (3/17) 7:59 AM EDT (3/17)
Length of Visible Light 12h 54m
Length of Day
12h 00m
Full, 99% of the Moon is Illuminated
Mar 17
Full
Mar 23
Last Quarter
Mar 30
New
Apr 7
First Quarter
Apr 15
Full

Hourly Weather History & Observations

Time (EDT) Temp. Windchill Dew Point Humidity Pressure Visibility Wind Dir Wind Speed Gust Speed Precip Events Conditions
12:58 AM 22.1 °F 9.5 °F 11.5 °F 64% 30.06 in 10.0 mi NE 13.8 mph - N/A   Scattered Clouds
1:38 AM 21.2 °F 8.3 °F 10.4 °F 63% 30.00 in 10.0 mi NE 13.8 mph - N/A   Mostly Cloudy
1:58 AM 21.4 °F 8.5 °F 11.1 °F 65% 30.04 in 10.0 mi NE 13.8 mph - N/A   Mostly Cloudy
2:08 AM 21.2 °F 8.3 °F 10.4 °F 63% 30.00 in 10.0 mi NE 13.8 mph 23.0 mph N/A   Mostly Cloudy
2:58 AM 20.5 °F 7.4 °F 10.9 °F 67% 30.01 in 10.0 mi NE 13.8 mph - N/A   Overcast
3:48 AM 21.2 °F 8.9 °F 10.4 °F 63% 29.99 in 10.0 mi NNE 12.7 mph - N/A   Overcast
3:58 AM 21.0 °F 8.6 °F 10.4 °F 64% 30.04 in 10.0 mi NNE 12.7 mph - N/A   Overcast
4:38 AM 21.2 °F 7.8 °F 10.4 °F 63% 29.96 in 10.0 mi NE 15.0 mph - N/A   Overcast
4:58 AM 20.7 °F 7.1 °F 9.9 °F 63% 29.99 in 10.0 mi NNE 15.0 mph - N/A   Overcast
5:58 AM 20.7 °F 7.6 °F 9.5 °F 62% 30.00 in 10.0 mi NE 13.8 mph - N/A   Overcast
6:58 AM 19.9 °F 7.9 °F 8.8 °F 62% 29.99 in 10.0 mi NE 11.5 mph - N/A   Overcast
7:58 AM 19.9 °F 6.7 °F 9.0 °F 62% 29.99 in 10.0 mi NE 13.8 mph - N/A   Overcast
8:58 AM 19.8 °F 5.9 °F 8.6 °F 62% 30.01 in 10.0 mi NNE 15.0 mph - N/A   Overcast
9:58 AM 21.2 °F 11.7 °F 9.0 °F 59% 30.01 in 10.0 mi NE 8.1 mph - N/A   Overcast
10:58 AM 23.4 °F 13.5 °F 9.9 °F 56% 30.01 in 10.0 mi NE 9.2 mph - N/A   Overcast
11:58 AM 26.4 °F 19.8 °F 11.5 °F 53% 29.97 in 10.0 mi NE 5.8 mph - N/A   Overcast
12:58 PM 29.8 °F 23.9 °F 14.0 °F 52% 29.95 in 10.0 mi East 5.8 mph - N/A   Overcast
1:58 PM 32.2 °F 28.9 °F 15.8 °F 51% 29.93 in 10.0 mi Variable 3.5 mph - N/A   Overcast
2:58 PM 35.6 °F 32.8 °F 17.8 °F 48% 29.91 in 10.0 mi Variable 3.5 mph - N/A   Overcast
3:58 PM 37.8 °F 35.3 °F 19.4 °F 48% 29.90 in 10.0 mi NW 3.5 mph - N/A   Overcast
4:58 PM 40.3 °F 37.1 °F 21.2 °F 47% 29.88 in 10.0 mi NNE 4.6 mph - N/A   Overcast
5:28 PM 42.8 °F - 23.0 °F 46% 29.84 in 10.0 mi ENE 1.2 mph - N/A   Partly Cloudy
5:58 PM 41.0 °F 37.1 °F 22.6 °F 48% 29.88 in 10.0 mi ESE 5.8 mph - N/A   Overcast
6:58 PM 39.6 °F 37.4 °F 22.5 °F 50% 29.90 in 10.0 mi East 3.5 mph - N/A   Overcast
7:58 PM 38.7 °F 34.3 °F 22.6 °F 53% 29.90 in 10.0 mi East 5.8 mph - N/A   Overcast
8:58 PM 38.1 °F 35.7 °F 23.0 °F 55% 29.91 in 10.0 mi SE 3.5 mph - N/A   Overcast
9:58 PM 37.9 °F 34.4 °F 23.2 °F 55% 29.93 in 10.0 mi East 4.6 mph - N/A   Overcast
10:58 PM 37.4 °F 33.8 °F 24.4 °F 60% 29.93 in 10.0 mi East 4.6 mph - N/A   Overcast
11:58 PM 34.3 °F - 23.4 °F 64% 29.95 in 10.0 mi Calm Calm - N/A   Clear